Location: Newark
(43.0000°N, 1.6781°W)
Time: 02:01:58
(UTC+00:00)

Vanguard 1 Rocket - Pass Details

Date: 22 April 2021
Orbit: 652 x 4224 km, 34.3° (Epoch: 06 May)

Event Time Altitude Azimuth Distance (km) Brightness Sun altitude
Rises 15:01:50 0° 256° (WSW) 3,502 11.2 41.2°
Reaches altitude 10° 15:04:54 10° 245° (WSW) 2,293 10.7 40.7°
Maximum altitude 15:09:08 29° 185° (S) 1,210 8.7 40.0°
Drops below altitude 10° 15:12:58 10° 123° (ESE) 2,068 9.1 39.4°
Sets 15:15:34 0° 112° (ESE) 3,088 9.8 38.9°
